Time,TemperatureF,DewpointF,PressureIn,WindDirection,WindDirectionDegrees,WindSpeedMPH,WindSpeedGustMPH,Humidity,HourlyPrecipIn,Conditions,Clouds,dailyrainin,SoftwareType,DateUTC
2014-09-22 00:06:00,67.5,67.2,29.38,WSW,247,0.0,-999.0,99,-99.99,,,0.00,Acu-Link.com,2014-09-22 04:06:00,
2014-09-22 00:21:00,67.5,67.2,29.38,NNW,337,1.7,-999.0,99,-99.99,,,0.00,Acu-Link.com,2014-09-22 04:21:00,
2014-09-22 00:37:00,67.3,67.0,29.39,West,270,4.7,-999.0,99,-99.99,,,0.00,Acu-Link.com,2014-09-22 04:37:00,
2014-09-22 00:52:00,67.1,66.8,29.38,West,270,3.7,-999.0,99,-99.99,,,0.00,Acu-Link.com,2014-09-22 04:52:00,
2014-09-22 01:07:00,67.1,66.8,29.38,SW,225,0.0,-999.0,99,-99.99,,,0.00,Acu-Link.com,2014-09-22 05:07:00,
2014-09-22 01:22:00,67.1,66.8,29.39,WNW,292,4.7,-999.0,99,-99.99,,,0.00,Acu-Link.com,2014-09-22 05:22:00,
2014-09-22 01:38:00,66.7,66.1,29.39,SW,225,7.3,-999.0,98,-99.99,,,0.00,Acu-Link.com,2014-09-22 05:38:00,
2014-09-22 01:53:00,66.2,65.6,29.39,West,270,5.8,-999.0,98,-99.99,,,0.00,Acu-Link.com,2014-09-22 05:53:00,
2014-09-22 02:08:00,65.8,63.7,29.39,SW,225,4.2,-999.0,93,-99.99,,,0.00,Acu-Link.com,2014-09-22 06:08:00,
2014-09-22 02:23:00,65.7,63.6,29.40,West,270,4.7,-999.0,93,-99.99,,,0.00,Acu-Link.com,2014-09-22 06:23:00,
2014-09-22 02:38:00,65.3,62.6,29.40,NW,315,1.1,-999.0,91,-99.99,,,0.00,Acu-Link.com,2014-09-22 06:38:00,
2014-09-22 02:54:00,64.9,61.3,29.39,NE,45,1.1,-999.0,88,-99.99,,,0.00,Acu-Link.com,2014-09-22 06:54:00,
2014-09-22 03:09:00,64.6,60.0,29.39,West,270,3.7,-999.0,85,-99.99,,,0.00,Acu-Link.com,2014-09-22 07:09:00,
2014-09-22 03:24:00,64.0,58.7,29.40,WNW,292,2.2,-999.0,83,-99.99,,,0.00,Acu-Link.com,2014-09-22 07:24:00,
2014-09-22 03:39:00,63.0,58.7,29.40,West,270,1.1,-999.0,86,-99.99,,,0.00,Acu-Link.com,2014-09-22 07:39:00,
2014-09-22 03:54:00,62.2,58.3,29.40,WSW,247,1.1,-999.0,87,-99.99,,,0.00,Acu-Link.com,2014-09-22 07:54:00,
2014-09-22 04:09:00,61.2,57.6,29.40,SSW,202,0.0,-999.0,88,-99.99,,,0.00,Acu-Link.com,2014-09-22 08:09:00,
2014-09-22 04:25:00,60.6,57.0,29.41,South,180,0.0,-999.0,88,-99.99,,,0.00,Acu-Link.com,2014-09-22 08:25:00,
2014-09-22 04:40:00,60.1,56.8,29.42,SSW,202,0.0,-999.0,89,-99.99,,,0.00,Acu-Link.com,2014-09-22 08:40:00,
2014-09-22 04:55:00,59.7,56.8,29.43,WNW,292,2.7,-999.0,90,-99.99,,,0.00,Acu-Link.com,2014-09-22 08:55:00,
2014-09-22 05:11:00,59.0,56.4,29.44,SW,225,1.7,-999.0,91,-99.99,,,0.00,Acu-Link.com,2014-09-22 09:11:00,
2014-09-22 05:26:00,58.8,56.2,29.45,West,270,2.2,-999.0,91,-99.99,,,0.00,Acu-Link.com,2014-09-22 09:26:00,
2014-09-22 05:41:00,58.6,56.3,29.45,WSW,247,1.1,-999.0,92,-99.99,,,0.00,Acu-Link.com,2014-09-22 09:41:00,
2014-09-22 05:56:00,58.1,56.1,29.46,WSW,247,2.2,-999.0,93,-99.99,,,0.00,Acu-Link.com,2014-09-22 09:56:00,
2014-09-22 06:11:00,57.4,55.7,29.47,NW,315,0.0,-999.0,94,-99.99,,,0.00,Acu-Link.com,2014-09-22 10:11:00,
2014-09-22 06:26:00,56.1,55.3,29.48,ENE,67,0.0,-999.0,97,-99.99,,,0.00,Acu-Link.com,2014-09-22 10:26:00,
2014-09-22 06:42:00,55.2,54.6,29.49,WSW,247,0.0,-999.0,98,-99.99,,,0.00,Acu-Link.com,2014-09-22 10:42:00,
2014-09-22 06:57:00,54.5,53.9,29.50,SSE,157,0.0,-999.0,98,-99.99,,,0.00,Acu-Link.com,2014-09-22 10:57:00,
2014-09-22 07:12:00,54.7,54.4,29.51,WSW,247,0.0,-999.0,99,-99.99,,,0.00,Acu-Link.com,2014-09-22 11:12:00,
2014-09-22 07:28:00,54.9,54.6,29.52,WNW,292,3.2,-999.0,99,-99.99,,,0.00,Acu-Link.com,2014-09-22 11:28:00,
2014-09-22 07:43:00,56.3,55.7,29.52,SW,225,1.1,-999.0,98,-99.99,,,0.00,Acu-Link.com,2014-09-22 11:43:00,
2014-09-22 07:58:00,60.8,55.9,29.53,WNW,292,3.2,-999.0,84,-99.99,,,0.00,Acu-Link.com,2014-09-22 11:58:00,
2014-09-22 08:13:00,62.6,55.6,29.53,WNW,292,6.8,-999.0,78,-99.99,,,0.00,Acu-Link.com,2014-09-22 12:13:00,
2014-09-22 08:29:00,63.3,55.2,29.53,West,270,4.7,-999.0,75,-99.99,,,0.00,Acu-Link.com,2014-09-22 12:29:00,
2014-09-22 08:44:00,63.1,55.0,29.53,WSW,247,7.3,-999.0,75,-99.99,,,0.00,Acu-Link.com,2014-09-22 12:44:00,
2014-09-22 08:59:00,64.4,55.6,29.53,NW,315,5.8,-999.0,73,-99.99,,,0.00,Acu-Link.com,2014-09-22 12:59:00,
2014-09-22 09:14:00,63.5,55.4,29.54,SW,225,3.7,-999.0,75,-99.99,,,0.00,Acu-Link.com,2014-09-22 13:14:00,
2014-09-22 09:29:00,63.0,55.3,29.54,WNW,292,7.3,-999.0,76,-99.99,,,0.00,Acu-Link.com,2014-09-22 13:29:00,
2014-09-22 09:44:00,64.0,55.2,29.54,WSW,247,7.8,-999.0,73,-99.99,,,0.00,Acu-Link.com,2014-09-22 13:44:00,
2014-09-22 10:00:00,64.8,55.2,29.54,WNW,292,10.9,-999.0,71,-99.99,,,0.00,Acu-Link.com,2014-09-22 14:00:00,
2014-09-22 10:15:00,64.0,54.0,29.56,WSW,247,5.3,-999.0,70,-99.99,,,0.00,Acu-Link.com,2014-09-22 14:15:00,
2014-09-22 10:30:00,65.3,52.8,29.55,WNW,292,11.9,-999.0,64,-99.99,,,0.00,Acu-Link.com,2014-09-22 14:30:00,
2014-09-22 10:46:00,64.9,51.6,29.54,West,270,12.5,-999.0,62,-99.99,,,0.00,Acu-Link.com,2014-09-22 14:46:00,
2014-09-22 11:01:00,64.8,51.9,29.54,SW,225,8.3,-999.0,63,-99.99,,,0.00,Acu-Link.com,2014-09-22 15:01:00,
2014-09-22 11:16:00,64.2,50.9,29.53,WNW,292,7.3,-999.0,62,-99.99,,,0.00,Acu-Link.com,2014-09-22 15:16:00,
2014-09-22 11:31:00,63.7,50.0,29.54,NW,315,16.1,-999.0,61,-99.99,,,0.00,Acu-Link.com,2014-09-22 15:31:00,
2014-09-22 11:46:00,64.0,50.3,29.54,NNW,337,14.5,-999.0,61,-99.99,,,0.00,Acu-Link.com,2014-09-22 15:46:00,
2014-09-22 12:01:00,65.1,51.3,29.55,West,270,8.9,-999.0,61,-99.99,,,0.00,Acu-Link.com,2014-09-22 16:01:00,
2014-09-22 12:16:00,66.0,51.7,29.55,NW,315,6.3,-999.0,60,-99.99,,,0.00,Acu-Link.com,2014-09-22 16:16:00,
2014-09-22 12:31:00,66.4,51.6,29.55,WSW,247,7.8,-999.0,59,-99.99,,,0.00,Acu-Link.com,2014-09-22 16:31:00,
2014-09-22 12:46:00,65.1,51.3,29.55,WSW,247,7.8,-999.0,61,-99.99,,,0.00,Acu-Link.com,2014-09-22 16:46:00,
2014-09-22 13:01:00,64.0,48.9,29.56,SW,225,15.0,-999.0,58,-99.99,,,0.00,Acu-Link.com,2014-09-22 17:01:00,